Location: Bern�tre
(50.1974°N, 2.0915°E)
Time: 05:29:26
(UTC+00:00)

Cosmos 2026 Rocket - Pass Details

Date: 18 September 2020
Orbit: 940 x 1000 km, 82.9° (Epoch: 29 October)

Event Time Altitude Azimuth Distance (km) Brightness Sun altitude
Rises 19:55:12 0° 352° (N) 3,714 7.5 -18.9°
Reaches altitude 10° 19:57:46 10° 356° (N) 2,768 6.8 -19.3°
Maximum altitude 20:04:05 61° 76° (ENE) 1,126 4.1 -20.1°
Enters shadow 20:06:55 33° 143° (SE) 1,607 4.6 -20.5°
